Weather History for Pittsfield, IL

Change the Weather History Date:

Thursday, January 1, 2004

  Actual Average (KUIN) Record (KUIN)
Temperature  
Mean Temperature 44 °F 27 °F  
Max Temperature 57 °F 34 °F 60 °F (1905)
Min Temperature 30 °F 19 °F -13 °F (1974)
Degree Days  
Heating Degree Days 22 38  
Month to date heating degree days 38  
Since 1 July heating degree days 2229  
Cooling Degree Days 0 0  
Month to date cooling degree days 0  
Year to date cooling degree days 0  
Moisture  
Dew Point 37 °F    
Average Humidity 83    
Maximum Humidity 100    
Minimum Humidity 67    
Precipitation  
Precipitation 0.00 in 0.06 in 3.38 in (1965)
Sea Level Pressure  
Sea Level Pressure 30.08 in    
Wind  
Wind Speed 7 mph (SSE)    
Max Wind Speed 16 mph    
Max Gust Speed 24 mph    
Visibility 10 miles    
Events      
T = Trace of Precipitation, MM = Missing Value Source: NWS Daily Summary

Daily Weather History Graph

Daily Weather History Graph

Search for Another Location

Airport:

Trip Planner

Search our weather history database for the weather conditions in past years. The results will help you decide how hot, cold, wet, or windy it might be!

Date:

Astronomy

Jan. 01, 2004 Rise Set
Actual Time 7:23 AM CST 4:49 PM CST
Civil Twilight 6:53 AM CST 5:19 PM CST
Nautical Twilight 6:19 AM CST 5:53 PM CST
Astronomical Twilight 5:47 AM CST 6:26 PM CST
Moon 12:57 PM CST (1/1) 1:56 AM CST (1/1)
Length of Visible Light 10h 25m
Length of Day
9h 25m
Waxing Gibbous, 72% of the Moon is Illuminated
Jan 1
Waxing Gibbous
Jan 7
Full
Jan 14
Last Quarter
Jan 21
New
Jan 29
First Quarter

Hourly Weather History & Observations

Time (CST) Temp. Windchill Dew Point Humidity Pressure Visibility Wind Dir Wind Speed Gust Speed Precip Events Conditions
12:05 AM 32.0 °F 25.6 °F 23.0 °F 69% 30.19 in 10.0 mi ENE 6.9 mph - N/A   Clear
12:25 AM 32.0 °F 25.6 °F 24.8 °F 75% 30.19 in 10.0 mi ENE 6.9 mph - N/A   Clear
12:45 AM 32.0 °F 26.4 °F 26.6 °F 80% 30.19 in 10.0 mi ENE 5.8 mph - N/A   Clear
1:05 AM 32.0 °F 27.5 °F 26.6 °F 80% 30.19 in 10.0 mi ENE 4.6 mph - N/A   Clear
1:25 AM 32.0 °F 27.5 °F 26.6 °F 80% 30.19 in 10.0 mi ENE 4.6 mph - N/A   Clear
1:45 AM 32.0 °F 27.5 °F 28.4 °F 87% 30.19 in 10.0 mi ENE 4.6 mph - N/A   Clear
2:05 AM 32.0 °F 27.5 °F 28.4 °F 87% 30.19 in 10.0 mi East 4.6 mph - N/A   Clear
2:25 AM 32.0 °F 27.5 °F 28.4 °F 87% 30.19 in 10.0 mi ESE 4.6 mph - N/A   Clear
2:45 AM 30.2 °F - 26.6 °F 86% 30.20 in 10.0 mi Calm Calm - N/A   Clear
3:05 AM 32.0 °F - 28.4 °F 87% 30.20 in 10.0 mi Calm Calm - N/A   Clear
3:25 AM 30.2 °F - 26.6 °F 86% 30.20 in 10.0 mi Calm Calm - N/A   Clear
3:45 AM 32.0 °F 28.7 °F 28.4 °F 87% 30.20 in 10.0 mi ESE 3.5 mph - N/A   Clear
4:05 AM 32.0 °F 28.7 °F 30.2 °F 93% 30.19 in 10.0 mi ESE 3.5 mph - N/A   Clear
4:25 AM 30.2 °F 25.4 °F 26.6 °F 86% 30.18 in 10.0 mi ESE 4.6 mph - N/A   Clear
4:45 AM 32.0 °F 27.5 °F 30.2 °F 93% 30.17 in 10.0 mi ESE 4.6 mph - N/A   Clear
5:05 AM 32.0 °F 27.5 °F 30.2 °F 93% 30.16 in 10.0 mi ESE 4.6 mph - N/A   Scattered Clouds
5:25 AM 32.0 °F 27.5 °F 32.0 °F 100% 30.15 in 10.0 mi ESE 4.6 mph - N/A   Mostly Cloudy
5:45 AM 33.8 °F 29.6 °F 32.0 °F 93% 30.15 in 10.0 mi SE 4.6 mph - N/A   Overcast
6:05 AM 33.8 °F 28.6 °F 32.0 °F 93% 30.15 in 10.0 mi SSE 5.8 mph - N/A   Overcast
6:25 AM 33.8 °F 27.7 °F 32.0 °F 93% 30.14 in 10.0 mi SSE 6.9 mph - N/A   Overcast
6:45 AM 33.8 °F 27.7 °F 32.0 °F 93% 30.14 in 10.0 mi SSE 6.9 mph - N/A   Overcast
7:05 AM 35.6 °F 29.2 °F 33.8 °F 93% 30.14 in 10.0 mi SSE 8.1 mph - N/A   Overcast
7:25 AM 35.6 °F 30.7 °F 33.8 °F 93% 30.14 in 10.0 mi SSE 5.8 mph - N/A   Overcast
7:45 AM 35.6 °F 32.8 °F 33.8 °F 93% 30.14 in 7.0 mi South 3.5 mph - N/A   Drizzle
8:05 AM 35.6 °F 29.9 °F 33.8 °F 93% 30.14 in 10.0 mi SSE 6.9 mph - N/A   Overcast
8:25 AM 37.4 °F 32.8 °F 35.6 °F 93% 30.14 in 10.0 mi SE 5.8 mph - N/A   Overcast
8:45 AM 37.4 °F 32.8 °F 35.6 °F 93% 30.14 in 10.0 mi SSE 5.8 mph - N/A   Overcast
9:05 AM 39.2 °F 33.6 °F 35.6 °F 87% 30.12 in 10.0 mi SE 8.1 mph - N/A   Mostly Cloudy
9:25 AM 41.0 °F 35.2 °F 35.6 °F 81% 30.11 in 10.0 mi SE 9.2 mph - N/A   Scattered Clouds
9:45 AM 41.0 °F 34.7 °F 35.6 °F 81% 30.07 in 10.0 mi SE 10.4 mph - N/A   Mostly Cloudy
10:05 AM 44.6 °F 43.1 °F 37.4 °F 76% 30.12 in 10.0 mi SSW 3.5 mph - N/A   Clear
10:25 AM 46.4 °F 45.2 °F 41.0 °F 81% 30.13 in 10.0 mi South 3.5 mph - N/A   Mostly Cloudy
10:45 AM 46.4 °F 42.4 °F 39.2 °F 76% 30.09 in 10.0 mi South 8.1 mph - N/A   Mostly Cloudy
11:05 AM 50.0 °F - 41.0 °F 71% 30.05 in 10.0 mi SSE 10.4 mph - N/A   Scattered Clouds
11:25 AM 50.0 °F - 41.0 °F 71% 30.05 in 10.0 mi South 9.2 mph - N/A   Scattered Clouds
11:45 AM 51.8 °F - 42.8 °F 71% 30.04 in 10.0 mi South 8.1 mph - N/A   Scattered Clouds
12:05 PM 51.8 °F - 42.8 °F 71% 30.02 in 10.0 mi South 11.5 mph 18.4 mph N/A   Mostly Cloudy
12:25 PM 51.8 °F - 42.8 °F 71% 29.98 in 10.0 mi South 12.7 mph 18.4 mph N/A   Light Drizzle
12:45 PM 51.8 °F - 42.8 °F 71% 29.96 in 10.0 mi South 16.1 mph 24.2 mph N/A   Mostly Cloudy
1:05 PM 53.6 °F - 42.8 °F 67% 30.00 in 10.0 mi SSW 11.5 mph 20.7 mph N/A   Mostly Cloudy
1:25 PM 51.8 °F - 44.6 °F 76% 29.97 in 7.0 mi South 10.4 mph - N/A   Overcast
1:45 PM 53.6 °F - 46.4 °F 77% 29.96 in 10.0 mi South 12.7 mph - N/A   Overcast
2:05 PM 53.6 °F - 46.4 °F 77% 29.94 in 10.0 mi South 10.4 mph - N/A   Overcast
2:25 PM 53.6 °F - 46.4 °F 77% 29.93 in 10.0 mi South 11.5 mph - N/A   Mostly Cloudy
2:45 PM 53.6 °F - 46.4 °F 77% 29.92 in 10.0 mi South 9.2 mph - N/A   Mostly Cloudy
3:05 PM 55.4 °F - 48.2 °F 77% 29.92 in 10.0 mi South 8.1 mph - N/A   Mostly Cloudy
3:25 PM 55.4 °F - 50.0 °F 82% 29.92 in 10.0 mi South 9.2 mph - N/A   Mostly Cloudy
3:45 PM 55.4 °F - 50.0 °F 82% 29.91 in 10.0 mi South 13.8 mph - N/A   Overcast
4:05 PM 55.4 °F - 50.0 °F 82% 29.90 in 10.0 mi South 11.5 mph 19.6 mph N/A   Mostly Cloudy
4:25 PM 55.4 °F - 50.0 °F 82% 29.91 in 10.0 mi SSW 10.4 mph 16.1 mph N/A   Mostly Cloudy
4:45 PM 55.4 °F - 50.0 °F 82% 29.90 in 10.0 mi South 12.7 mph 20.7 mph N/A   Scattered Clouds
5:05 PM 55.4 °F - 50.0 °F 82% 29.91 in 10.0 mi SSW 10.4 mph 17.3 mph N/A   Scattered Clouds
5:47 PM 57.2 °F - 51.8 °F 82% 29.91 in 10.0 mi SW 12.7 mph - N/A   Mostly Cloudy
6:05 PM 55.4 °F - 50.0 °F 82% 29.92 in 10.0 mi SW 10.4 mph - N/A   Overcast
6:09 PM 57.2 °F - 51.8 °F 82% 29.92 in 10.0 mi SW 11.5 mph - N/A   Overcast
6:25 PM 55.4 °F - 51.8 °F 88% 29.92 in 10.0 mi SW 10.4 mph - N/A   Mostly Cloudy
6:45 PM 55.4 °F - 51.8 °F 88% 29.92 in 10.0 mi WSW 9.2 mph - N/A   Mostly Cloudy
7:05 PM 55.4 °F - 51.8 °F 88% 29.93 in 10.0 mi SW 8.1 mph - N/A   Mostly Cloudy
7:25 PM 55.4 °F - 51.8 °F 88% 29.92 in 10.0 mi SW 8.1 mph - N/A   Scattered Clouds
7:45 PM 55.4 °F - 51.8 °F 88% 29.94 in 10.0 mi SW 8.1 mph - N/A   Scattered Clouds
8:05 PM 55.4 °F - 51.8 °F 88% 29.94 in 10.0 mi SW 10.4 mph - N/A   Scattered Clouds
8:25 PM 55.4 °F - 51.8 °F 88% 29.94 in 10.0 mi SSW 10.4 mph - N/A   Clear
8:45 PM 55.4 °F - 51.8 °F 88% 29.95 in 10.0 mi SW 6.9 mph - N/A   Clear
9:05 PM 53.6 °F - 50.0 °F 88% 29.96 in 10.0 mi SW 8.1 mph - N/A   Clear
9:25 PM 53.6 °F - 51.8 °F 94% 29.96 in 10.0 mi SW 9.2 mph - N/A   Clear
9:45 PM 53.6 °F - 51.8 °F 94% 29.96 in 10.0 mi SW 8.1 mph - N/A   Clear
10:05 PM 53.6 °F - 51.8 °F 94% 29.96 in 10.0 mi SW 9.2 mph - N/A   Clear
10:25 PM 53.6 °F - 51.8 °F 94% 29.97 in 10.0 mi SW 5.8 mph - N/A   Clear
10:45 PM 51.8 °F - 50.0 °F 94% 29.97 in 10.0 mi SSW 5.8 mph - N/A   Clear
11:05 PM 51.8 °F - 50.0 °F 94% 29.97 in 10.0 mi SSW 4.6 mph - N/A   Clear
11:25 PM 51.8 °F - 50.0 °F 94% 29.97 in 10.0 mi SW 5.8 mph - N/A   Clear
11:45 PM 51.8 °F - 51.8 °F 100% 29.96 in 7.0 mi SW 5.8 mph - N/A   Clear